Location: Unspecified
(41.1637°N, 24.2901°E)
Time: 02:05:37
(UTC+01:00)

ISS - Pass Details

Date: 15 January 2026
Orbit: 413 x 424 km, 51.6° (Epoch: 16 January)

Event Time Altitude Azimuth Distance (km) Brightness Sun altitude
Rises 18:37:54 0° 278° (W) 2,348 1.3 -25.7°
Reaches altitude 10° 18:40:27 10° 298° (WNW) 1,489 -0.3 -26.2°
Enters shadow 18:41:35 15° 316° (NW) 1,214 -1.0 -26.4°
